User: anonymous   Login
Location: Kailua
(21.4020°N, 157.7390°W)
Time: 19:24:35
(UTC-10:00)
Language:

Cosmos 2297 Rocket - Orbit

View from above orbital plane
View from above orbital plane
View from above satellite
View from above satellite

Ground track
Ground track

The orbit data is extracted from the following two-line orbital elements,

1 23405U 94077B   17055.75065373 -.00000130 +00000-0 -42309-4 0  9993
2 23405 070.9826 091.7959 0001838 199.9362 160.1689 14.15195651149358
Epoch (UTC): 24 February 2017 18:00:56
Eccentricity: 0.0001838
inclination: 70.9826°
perigee height: 840 km
apogee height: 843 km
right ascension of ascending node: 91.7959°
argument of perigee: 199.9362°
revolutions per day: 14.15195651
mean anomaly at epoch: 160.1689°
orbit number at epoch: 14935

The dashed part of the orbit path shows where the satellite is in the earth's shadow,  

DLR